Fremont, NE

11:43 PM CST on November 18, 2017 (GMT -0600)
Fremont Municipal

Weather History for KFET - October, 2013

Change the Weather History Date:

Tuesday, October 29, 2013

  Actual Average Record
Temperature  
Mean Temperature 46 °F -  
Max Temperature 50 °F 58 °F 140 °F (2002)
Min Temperature 43 °F 35 °F 15 °F (2002)
Degree Days  
Heating Degree Days 18    
Moisture  
Dew Point 47 °F    
Average Humidity 98    
Maximum Humidity 100    
Minimum Humidity 84    
Precipitation  
Precipitation 0.14 in - - ()
Sea Level Pressure  
Sea Level Pressure 30.03 in    
Wind  
Wind Speed 8 mph (ENE)    
Max Wind Speed 14 mph    
Max Gust Speed 20 mph    
Visibility 4 miles    
Events Rain    
Averages and records for this station are not official NWS values.
T = Trace of Precipitation, MM = Missing Value Source: NWS Daily Summary

Daily Weather History Graph

Daily Weather History Graph

Search for Another Location

Airport or City:

Trip Planner

Search our weather history database for the weather conditions in past years. The results will help you decide how hot, cold, wet, or windy it might be!

Date:

Astronomy

Oct. 29, 2013 Rise Set
Actual Time 7:54 AM CDT 6:24 PM CDT
Civil Twilight 7:25 AM CDT 6:53 PM CDT
Nautical Twilight 6:53 AM CDT 7:25 PM CDT
Astronomical Twilight 6:21 AM CDT 7:57 PM CDT
Moon 2:42 AM CDT (10/29) 3:41 PM CDT (10/29)
Length of Visible Light 11h 27m
Length of Day
10h 30m
Waning Crescent, 25% of the Moon is Illuminated
Oct 29
Waning Crescent
Nov 3
New
Nov 9
First Quarter
Nov 17
Full
Nov 25
Last Quarter

Hourly Weather History & Observations

Time (CDT) Temp. Windchill Dew Point Humidity Pressure Visibility Wind Dir Wind Speed Gust Speed Precip Events Conditions
12:15 AM 44.6 °F 38.8 °F 40.1 °F 84% 30.19 in 10.0 mi ENE 11.5 mph - N/A Rain Light Rain
12:35 AM 44.6 °F 38.4 °F 40.1 °F 84% 30.17 in 10.0 mi East 12.7 mph - N/A Rain Light Rain
12:55 AM 44.2 °F 38.4 °F 40.3 °F 86% 30.16 in 10.0 mi East 11.5 mph - 0.01 in Rain Light Rain
1:15 AM 44.1 °F 38.1 °F 41.0 °F 89% 30.14 in 10.0 mi ENE 11.5 mph - N/A Rain Rain
1:35 AM 44.1 °F 38.1 °F 41.0 °F 89% 30.14 in 10.0 mi East 11.5 mph - N/A Rain Light Rain
1:55 AM 43.9 °F 37.9 °F 41.2 °F 90% 30.13 in 10.0 mi East 11.5 mph - 0.02 in Rain Rain
2:15 AM 43.7 °F 37.3 °F 41.2 °F 91% 30.13 in 10.0 mi ENE 12.7 mph 16.1 mph 0.01 in Rain Light Rain
2:35 AM 43.2 °F 36.2 °F 41.2 °F 93% 30.12 in 10.0 mi East 13.8 mph 19.6 mph 0.03 in Rain Light Rain
2:55 AM 43.2 °F 36.6 °F 41.7 °F 95% 30.12 in 10.0 mi East 12.7 mph - 0.03 in Rain Light Rain
3:15 AM 43.2 °F 37.0 °F 41.9 °F 95% 30.12 in 10.0 mi East 11.5 mph - N/A Rain Light Rain
3:35 AM 43.3 °F 38.1 °F 41.9 °F 95% 30.13 in 10.0 mi East 9.2 mph - N/A   Light Drizzle
3:55 AM 43.2 °F 37.4 °F 41.9 °F 95% 30.12 in 10.0 mi East 10.4 mph - 0.01 in Rain Light Rain
4:15 AM 43.3 °F 39.2 °F 42.1 °F 95% 30.11 in 10.0 mi East 6.9 mph - N/A Rain Light Rain
5:15 AM 43.0 °F 38.8 °F 42.1 °F 97% 30.10 in 10.0 mi East 6.9 mph - N/A   Overcast
8:55 AM 43.3 °F 38.1 °F 43.0 °F 99% 30.09 in 5.0 mi East 9.2 mph - N/A   Overcast
9:35 AM 43.7 °F 38.6 °F 43.0 °F 97% 30.09 in 5.0 mi East 9.2 mph 16.1 mph N/A   Overcast
9:55 AM 43.7 °F 37.7 °F 43.3 °F 99% 30.07 in 3.0 mi East 11.5 mph - N/A   Overcast
10:15 AM 44.2 °F 39.2 °F 44.1 °F 99% 30.07 in 5.0 mi East 9.2 mph 17.3 mph N/A   Overcast
10:35 AM 44.8 °F 39.9 °F 44.2 °F 98% 30.06 in 7.0 mi East 9.2 mph - N/A   Overcast
10:55 AM 45.5 °F 39.9 °F 45.0 °F 98% 30.06 in 7.0 mi East 11.5 mph - N/A   Overcast
11:15 AM 46.0 °F 41.9 °F 45.5 °F 98% 30.07 in 7.0 mi East 8.1 mph - N/A   Overcast
11:35 AM 45.9 °F 42.3 °F 45.1 °F 97% 30.07 in 7.0 mi East 6.9 mph - N/A   Overcast
11:55 AM 46.4 °F 43.5 °F 45.7 °F 97% 30.06 in 4.0 mi East 5.8 mph - N/A   Overcast
12:15 PM 46.4 °F 42.9 °F 46.4 °F 100% 30.06 in 1.2 mi ENE 6.9 mph - N/A   Overcast
12:35 PM 46.6 °F - 46.6 °F 100% 30.05 in 1.0 mi ENE 6.9 mph - N/A   Overcast
12:55 PM 46.6 °F - 46.6 °F 100% 30.05 in 0.8 mi East 6.9 mph - N/A   Overcast
1:15 PM 47.3 °F - 47.3 °F 100% 30.04 in 1.0 mi East 6.9 mph - N/A   Overcast
1:35 PM 47.3 °F - 47.3 °F 100% 30.03 in 1.0 mi ENE 4.6 mph - N/A   Overcast
1:55 PM 47.3 °F - 47.3 °F 100% 30.02 in 1.0 mi ENE 6.9 mph - N/A   Overcast
2:15 PM 47.5 °F - 47.5 °F 100% 30.00 in 1.0 mi East 8.1 mph - N/A   Overcast
2:35 PM 47.7 °F - 47.7 °F 100% 29.99 in 1.0 mi East 8.1 mph - N/A   Overcast
2:55 PM 48.2 °F - 48.2 °F 100% 29.98 in 1.2 mi East 6.9 mph - N/A   Overcast
3:15 PM 49.1 °F - 49.1 °F 100% 29.97 in 1.5 mi East 5.8 mph - N/A   Overcast
3:35 PM 49.6 °F - 49.6 °F 100% 29.97 in 1.2 mi ENE 5.8 mph - N/A   Overcast
3:55 PM 50.0 °F - 50.0 °F 100% 29.96 in 1.2 mi East 5.8 mph - N/A   Overcast
4:15 PM 50.2 °F - 50.2 °F 100% 29.96 in 2.0 mi East 6.9 mph - N/A   Overcast
4:35 PM 50.5 °F - 50.5 °F 100% 29.96 in 1.5 mi East 5.8 mph - N/A   Overcast
4:55 PM 50.7 °F - 50.7 °F 100% 29.97 in 1.2 mi East 6.9 mph - N/A   Overcast
5:15 PM 50.9 °F - 50.9 °F 100% 29.97 in 1.0 mi ENE 3.5 mph - N/A   Overcast
5:35 PM 50.7 °F - 50.7 °F 100% 29.96 in 1.0 mi NE 3.5 mph - N/A   Overcast
5:55 PM 50.5 °F - 50.5 °F 100% 29.96 in 1.2 mi NE 3.5 mph - N/A   Overcast
6:15 PM 50.5 °F - 50.5 °F 100% 29.96 in 1.8 mi Calm Calm - N/A   Overcast
6:35 PM 50.5 °F - 50.5 °F 100% 29.97 in 1.8 mi NNE 3.5 mph - N/A   Drizzle
6:55 PM 50.2 °F - 50.2 °F 100% 29.97 in 1.8 mi Calm Calm - 0.01 in   Overcast
7:15 PM 50.0 °F - 50.0 °F 100% 29.97 in 1.5 mi NNE 4.6 mph - N/A   Light Drizzle
7:35 PM 50.0 °F - 50.0 °F 100% 29.97 in 1.8 mi NE 4.6 mph - 0.01 in   Light Drizzle
7:55 PM 50.0 °F - 50.0 °F 100% 29.97 in 1.8 mi NE 3.5 mph - 0.01 in   Overcast
8:15 PM 49.8 °F - 49.8 °F 100% 29.97 in 1.8 mi Calm Calm - 0.01 in Rain Rain
8:35 PM 49.6 °F - 49.6 °F 100% 29.97 in 1.8 mi Calm Calm - 0.01 in   Overcast
8:55 PM 49.5 °F - 49.5 °F 100% 29.96 in 1.5 mi Calm Calm - 0.01 in   Light Drizzle
9:15 PM 49.5 °F - 49.5 °F 100% 29.97 in 1.5 mi Calm Calm - N/A   Overcast
9:35 PM 49.3 °F - 49.3 °F 100% 29.97 in 1.2 mi Calm Calm - 0.01 in   Overcast
9:55 PM 49.3 °F - 49.3 °F 100% 29.97 in 1.2 mi Calm Calm - 0.01 in   Overcast
10:15 PM 49.1 °F - 49.1 °F 100% 29.97 in 1.2 mi Calm Calm - N/A   Overcast
10:35 PM 49.1 °F - 49.1 °F 100% 29.97 in 1.2 mi Calm Calm - 0.01 in   Overcast
10:55 PM 49.1 °F - 49.1 °F 100% 29.98 in 1.2 mi Calm Calm - 0.01 in   Overcast
11:15 PM 49.3 °F - 49.3 °F 100% 29.98 in 1.2 mi Calm Calm - 0.01 in Rain Rain
11:35 PM 49.1 °F - 49.1 °F 100% 29.98 in 1.2 mi NW 6.9 mph - 0.02 in   Overcast
11:55 PM 48.6 °F - 48.6 °F 100% 29.98 in 1.0 mi WNW 5.8 mph - 0.02 in   Overcast